Weather History for Klawock, AK

Change the Weather History Date:

Wednesday, January 2, 2013

  Actual Average Record
Temperature  
Mean Temperature 37 °F -  
Max Temperature 42 °F 37 °F 51 °F (2001)
Min Temperature 32 °F 30 °F 15 °F (2005)
Degree Days  
Heating Degree Days 28    
Moisture  
Dew Point 36 °F    
Average Humidity 95    
Maximum Humidity 100    
Minimum Humidity 87    
Precipitation  
Precipitation 1.04 in - - ()
Sea Level Pressure  
Sea Level Pressure 29.88 in    
Wind  
Wind Speed 2 mph (NE)    
Max Wind Speed 7 mph    
Max Gust Speed -    
Visibility 6 miles    
Events Fog , Rain    
Averages and records for this station are not official NWS values.
T = Trace of Precipitation, MM = Missing Value Source: NWS Daily Summary

Daily Weather History Graph

Daily Weather History Graph

Search for Another Location

Airport:

Trip Planner

Search our weather history database for the weather conditions in past years. The results will help you decide how hot, cold, wet, or windy it might be!

Date:

Astronomy

Jan. 02, 2013 Rise Set
Actual Time 8:20 AM AKST 3:33 PM AKST
Civil Twilight 7:34 AM AKST 4:19 PM AKST
Nautical Twilight 6:46 AM AKST 5:07 PM AKST
Astronomical Twilight 6:01 AM AKST 5:51 PM AKST
Moon 10:20 PM AKST (1/2) 10:04 AM AKST (1/2)
Length of Visible Light 8h 44m
Length of Day
7h 12m
Waning Gibbous, 74% of the Moon is Illuminated
Jan 2
Waning Gibbous
Jan 4
Last Quarter
Jan 11
New
Jan 18
First Quarter
Jan 26
Full

Hourly Weather History & Observations

Time (AKST) Temp. Windchill Dew Point Humidity Pressure Visibility Wind Dir Wind Speed Gust Speed Precip Events Conditions
12:53 AM 39.9 °F 37.8 °F 37.0 °F 89% 29.87 in 5.0 mi SE 3.5 mph - 0.18 in Rain Rain
1:53 AM 37.9 °F 35.5 °F 37.0 °F 97% 29.86 in 5.0 mi NNW 3.5 mph - 0.13 in Rain Rain
3:53 AM 39.0 °F - 37.0 °F 93% 29.82 in 8.0 mi Calm Calm - 0.08 in Rain Light Rain
4:53 AM 39.0 °F - 37.0 °F 93% 29.81 in 8.0 mi Calm Calm - 0.07 in Rain Light Rain
5:53 AM 39.0 °F 35.7 °F 37.9 °F 96% 29.79 in 8.0 mi Variable 4.6 mph - 0.07 in Rain Light Rain
6:53 AM 39.9 °F 35.8 °F 37.9 °F 93% 29.78 in 8.0 mi NNE 5.8 mph - 0.03 in Rain Light Rain
7:53 AM 39.9 °F - 39.0 °F 97% 29.78 in 8.0 mi Calm Calm - 0.03 in Rain Light Rain
8:51 AM 41.0 °F 36.4 °F 39.2 °F 93% 29.79 in 7.0 mi SSW 6.9 mph - 0.04 in Rain Light Rain
8:53 AM 41.0 °F 38.0 °F 39.9 °F 96% 29.80 in 5.0 mi SSW 4.6 mph - 0.05 in Rain Light Rain
9:00 AM 42.8 °F - 39.2 °F 87% 29.79 in 3.0 mi Calm Calm - 0.02 in Rain Rain
9:41 AM 41.0 °F 39.0 °F 39.2 °F 93% 29.81 in 7.0 mi SSW 3.5 mph - 0.07 in Rain Light Rain
9:53 AM 41.0 °F - 39.0 °F 93% 29.82 in 7.0 mi Calm Calm - 0.07 in Rain Light Rain
10:15 AM 41.0 °F 39.0 °F 39.2 °F 93% 29.81 in 7.0 mi SSE 3.5 mph - 0.02 in Rain Light Rain
10:53 AM 41.0 °F - 39.0 °F 93% 29.82 in 5.0 mi Calm Calm - 0.07 in Rain Rain
11:04 AM 41.0 °F - 39.2 °F 93% 29.82 in 2.5 mi Calm Calm - 0.02 in Rain Rain
11:53 AM 39.9 °F - 39.0 °F 97% 29.82 in 7.0 mi Calm Calm - 0.07 in Rain Light Rain
12:39 PM 39.2 °F - 39.2 °F 100% 29.82 in 2.5 mi Calm Calm - 0.03 in Rain Light Rain
12:51 PM 39.2 °F - 39.2 °F 100% 29.82 in 4.0 mi Calm Calm - 0.04 in Rain Light Rain
12:53 PM 39.9 °F - 39.0 °F 97% 29.83 in 5.0 mi Calm Calm - 0.05 in Rain Light Rain
1:53 PM 39.0 °F - 37.9 °F 96% 29.83 in 7.0 mi Calm Calm - 0.03 in Rain Light Rain
2:53 PM 37.9 °F - 37.0 °F 97% 29.86 in 4.0 mi Calm Calm - 0.06 in Rain Light Rain
3:53 PM 37.9 °F - 37.0 °F 97% 29.88 in 10.0 mi Calm Calm - 0.03 in Rain Light Rain
4:33 PM 37.4 °F 34.9 °F 35.6 °F 93% 29.88 in 10.0 mi NNW 3.5 mph - 0.01 in   Overcast
4:44 PM 37.4 °F - 35.6 °F 93% 29.88 in 10.0 mi Calm Calm - 0.01 in   Overcast
4:53 PM 37.0 °F - 37.0 °F 100% 29.89 in 10.0 mi Calm Calm - 0.01 in   Overcast
5:42 PM 35.6 °F - 35.6 °F 100% 29.89 in 10.0 mi Calm Calm - 0.01 in   Mostly Cloudy
5:50 PM 35.6 °F - 33.8 °F 93% 29.90 in 10.0 mi Calm Calm - 0.01 in   Scattered Clouds
5:53 PM 35.1 °F - 34.0 °F 96% 29.90 in 10.0 mi Calm Calm - 0.01 in   Partly Cloudy
6:04 PM 35.6 °F - 33.8 °F 93% 29.90 in 7.0 mi Calm Calm - N/A   Scattered Clouds
6:17 PM 35.6 °F - 33.8 °F 93% 29.91 in 10.0 mi Calm Calm - N/A   Mostly Cloudy
6:46 PM 33.8 °F - 33.8 °F 100% 29.91 in 6.0 mi Calm Calm - N/A   Partly Cloudy
6:53 PM 34.0 °F - 33.1 °F 96% 29.92 in 10.0 mi Calm Calm - N/A   Partly Cloudy
7:07 PM 33.8 °F - 32.0 °F 93% 29.92 in 6.0 mi Calm Calm - N/A   Mostly Cloudy
7:20 PM 33.8 °F - 32.0 °F 93% 29.93 in 1.2 mi Calm Calm - N/A   Overcast
7:31 PM 33.8 °F - 32.0 °F 93% 29.94 in 0.5 mi Calm Calm - N/A Fog Fog
7:42 PM 33.8 °F - 32.0 °F 93% 29.94 in 1.8 mi Calm Calm - N/A   Overcast
7:53 PM 32.0 °F - 32.0 °F 100% 29.95 in 1.8 mi Calm Calm - N/A   Overcast
8:09 PM 33.8 °F - 33.8 °F 100% 29.95 in 3.0 mi Calm Calm - N/A   Overcast
8:13 PM 33.8 °F - 33.8 °F 100% 29.95 in 2.5 mi Calm Calm - N/A   Overcast
8:23 PM 33.8 °F - 33.8 °F 100% 29.95 in 1.8 mi Calm Calm - N/A   Overcast
8:28 PM 33.8 °F - 33.8 °F 100% 29.95 in 3.0 mi Calm Calm - N/A   Overcast
8:53 PM 34.0 °F - 33.1 °F 96% 29.96 in 10.0 mi Calm Calm - N/A   Overcast
9:53 PM 34.0 °F 31.0 °F 33.1 °F 96% 29.97 in 10.0 mi NNE 3.5 mph - N/A   Overcast
10:53 PM 35.1 °F 32.2 °F 33.1 °F 92% 29.99 in 10.0 mi NE 3.5 mph - N/A   Overcast
11:13 PM 35.6 °F - 33.8 °F 93% 29.98 in 10.0 mi Calm Calm - N/A   Overcast
11:53 PM 35.1 °F 32.2 °F 34.0 °F 96% 29.98 in 10.0 mi NNE 3.5 mph - N/A   Overcast